Wetbulb
33.51 32.50 32.21 32.03 32.63 32.52 32.23 32.63 33.89 34.20 34.70 35.12 35.75 35.94 36.32 36.03 36.37 37.11 37.06 36.52 37.20 37.99
32.73 32.03 31.58 32.03 33.48 32.84 33.01 32.95 32.84 32.98 33.04 33.47 34.09 34.61 34.93 35.02 35.48 36.05 36.69 36.96 37.06 37.08
32.29 32.43 32.27 31.99 31.09 31.85 32.10 32.08 31.89 32.01 32.28 32.53 32.99 33.51 33.70 33.76 34.79 34.72 35.90 36.28 36.18 36.83
32.02 32.20 31.69 30.87 30.86 30.78 30.64 30.70 30.74 31.04 31.31 31.67 31.96 32.50 32.67 33.20 33.72 33.59 34.45 35.03 35.67 35.24
32.01 31.25 30.03 29.25 30.75 30.76 29.87 30.37 30.43 30.62 30.85 31.37 32.18 32.72 32.54 32.35 33.14 33.21 33.14 33.24 34.74 34.52
29.36 28.18 25.55 25.73 30.09 30.20 29.46 29.56 30.34 30.98 30.89 30.66 31.16 31.91 32.52 32.95 32.85 32.99 33.11 34.16 34.99 34.22
26.35 26.98 26.26 26.11 28.29 29.78 29.79 29.97 30.50 30.71 30.63 31.06 31.27 31.80 32.22 32.60 32.52 32.46 32.84 33.98 34.20 34.15
23.35 23.88 24.15 22.64 27.64 29.91 30.51 30.69 30.66 30.22 30.77 31.38 31.81 32.16 33.42 34.15 33.67 32.12 32.31 33.20 33.27 33.96
18.79 21.19 21.54 21.51 27.50 30.27 30.53 30.62 30.30 29.49 30.32 31.21 31.97 34.71 35.28 36.12 32.30 32.37 32.27 32.27 32.94 33.81
15.56 17.15 18.48 20.70 29.58 30.45 29.43 30.41 29.60 28.89 29.11 30.66 31.86 34.33 34.27 33.05 32.58 32.33 32.53 32.58 32.91 32.78
12.99 13.15 16.28 16.53 24.06 29.69 30.15 29.68 29.55 28.79 27.80 28.22 32.00 33.71 33.49 32.26 29.04 30.51 30.94 31.31 31.78 32.31
12.04 12.73 13.15 15.58 16.14 18.84 27.90 26.38 28.19 28.43 27.29 27.17 28.81 33.56 33.05 30.86 29.57 29.58 30.02 31.11 31.84 31.75
12.31 12.57 13.71 15.58 16.68 17.22 18.93 22.89 25.80 25.49 21.45 25.67 26.74 32.01 32.53 30.85 29.32 27.63 28.73 30.10 30.86 32.86
13.44 15.11 16.27 20.39 19.84 20.12 19.38 20.76 19.42 22.28 21.62 20.46 22.66 25.88 31.13 31.75 26.82 26.49 27.14 27.92 28.27 29.99
MSLP
1014.87 1014.90 1014.79 1014.64 1014.34 1013.90 1013.59 1013.19 1012.77 1012.46 1012.08 1011.73 1011.47 1011.16 1010.87 1010.58 1010.30 1010.03 1009.64 1009.38 1009.31 1008.98
1014.69 1014.62 1014.48 1014.19 1013.88 1013.48 1013.15 1012.78 1012.36 1012.12 1011.75 1011.38 1011.08 1010.68 1010.27 1009.81 1009.37 1009.25 1008.97 1008.58 1008.35 1008.16
1014.42 1014.34 1014.17 1013.94 1013.69 1013.36 1012.91 1012.54 1012.17 1011.73 1011.28 1010.83 1010.46 1010.07 1009.74 1009.23 1008.70 1008.31 1007.89 1007.70 1007.54 1007.28
1014.28 1014.21 1014.03 1013.83 1013.57 1013.20 1012.77 1012.35 1011.83 1011.32 1010.78 1010.26 1009.70 1009.21 1008.74 1008.27 1007.89 1007.41 1007.08 1006.98 1006.68 1006.40
1014.25 1014.17 1013.98 1013.71 1013.28 1012.87 1012.39 1011.97 1011.48 1010.80 1010.12 1009.50 1008.89 1008.32 1007.78 1007.23 1006.78 1006.39 1006.00 1005.94 1005.79 1005.58
1014.39 1014.19 1013.96 1013.52 1013.01 1012.53 1012.05 1011.53 1010.92 1010.24 1009.56 1008.88 1008.23 1007.57 1006.93 1006.28 1005.70 1005.28 1005.10 1004.98 1004.64 1004.83
1014.42 1014.03 1013.72 1013.30 1012.92 1012.29 1011.70 1011.04 1010.43 1009.79 1009.15 1008.32 1007.51 1006.73 1005.97 1005.21 1004.54 1004.10 1004.03 1004.00 1003.96 1004.08
1014.24 1013.81 1013.51 1013.13 1012.73 1012.10 1011.45 1010.74 1010.04 1009.43 1008.68 1007.84 1006.93 1006.10 1005.01 1003.89 1003.20 1003.30 1003.50 1003.58 1003.57 1003.53
1014.50 1014.05 1013.55 1013.16 1012.63 1012.02 1011.41 1010.66 1009.93 1009.29 1008.45 1007.44 1006.55 1005.48 1004.41 1003.11 1002.83 1003.07 1003.17 1003.15 1003.10 1002.99
1014.38 1014.35 1013.76 1013.28 1012.50 1011.87 1011.38 1010.54 1009.96 1009.32 1008.55 1007.53 1006.52 1005.33 1004.47 1003.83 1003.17 1003.06 1002.93 1002.77 1002.51 1002.31
1014.17 1014.26 1013.78 1013.32 1012.70 1012.02 1011.33 1010.69 1010.01 1009.59 1009.04 1008.06 1006.80 1005.72 1004.93 1004.38 1004.03 1003.61 1003.17 1002.71 1002.21 1001.70
1013.67 1013.96 1013.63 1013.10 1012.52 1012.02 1011.52 1010.91 1010.24 1009.85 1009.55 1008.72 1007.69 1006.39 1005.51 1005.02 1004.58 1004.06 1003.53 1002.97 1002.40 1001.85
1013.15 1013.55 1013.50 1013.06 1012.48 1012.09 1011.76 1011.27 1010.57 1010.18 1009.73 1009.29 1008.54 1007.42 1006.37 1005.73 1005.27 1004.84 1004.36 1003.76 1003.13 1002.66
1012.65 1012.99 1012.92 1012.94 1012.15 1012.08 1011.84 1011.32 1010.91 1010.55 1010.10 1009.61 1009.13 1008.38 1007.35 1006.69 1006.40 1006.01 1005.49 1004.98 1004.52 1004.00
Wind_Speed
6 3 4 6 8 8 9 9 11 11 12 12 12 12 12 10 11 12 12 15 12 11
5 5 6 9 10 8 10 10 13 13 13 13 13 13 13 11 13 13 14 13 13 12
5 6 6 7 9 11 11 11 12 12 13 13 13 14 14 12 13 14 13 12 15 13
5 6 6 7 9 10 12 12 12 12 12 13 13 13 13 14 15 16 14 13 16 16
6 6 7 8 10 10 11 11 11 12 13 13 13 13 13 15 14 15 15 15 16 15
6 6 6 6 9 9 9 10 11 11 11 12 12 13 13 14 15 15 14 15 13 13
5 6 7 7 8 9 9 9 9 10 10 11 12 12 13 12 13 12 11 12 12 12
6 6 6 6 7 9 9 8 8 10 11 11 10 8 12 13 11 8 8 10 10 10
4 6 6 6 7 8 9 8 9 11 12 11 8 21 22 17 2 5 6 8 9 10
3 6 6 6 7 8 10 8 9 12 13 12 11 22 21 20 5 3 5 7 8 7
2 4 5 4 5 7 8 8 8 10 12 13 11 22 19 17 8 6 5 5 6 8
1 4 4 5 4 4 5 5 6 7 10 13 13 24 21 14 8 8 9 9 9 7
2 2 4 6 4 3 3 4 5 6 4 8 11 22 24 16 7 9 8 10 11 17
3 3 3 5 3 3 4 4 5 6 6 5 8 12 23 23 10 8 7 8 9 9
Wind_Direction
312 302 302 299 298 294 290 289 291 287 286 283 280 274 266 264 262 263 255 252 254 262
313 310 295 294 294 296 293 295 296 297 292 288 282 276 272 265 255 256 256 252 249 248
311 298 297 305 303 303 306 305 300 293 287 284 278 274 272 268 262 261 249 248 251 250
311 307 315 310 311 307 306 301 297 296 293 287 280 275 268 262 263 257 255 254 251 249
312 312 304 303 305 309 306 304 296 291 287 283 280 276 269 265 261 257 251 252 242 244
304 300 292 289 308 313 311 302 295 295 296 299 293 286 277 270 263 254 246 256 236 237
291 294 294 296 307 312 301 303 309 315 308 300 298 286 281 270 262 250 243 246 239 244
279 286 291 301 318 307 305 314 326 326 319 319 305 304 305 294 256 241 243 252 252 243
304 301 313 317 317 319 320 322 346 341 330 329 331 342 347 345 156 228 239 250 249 247
316 319 325 320 322 341 336 334 354 357 343 343 342 2 4 8 353 281 262 256 251 241
342 310 312 320 314 342 346 352 356 358 352 347 354 9 13 13 0 360 350 324 293 256
151 297 305 314 305 302 325 328 347 359 359 356 350 16 21 17 5 9 12 10 12 1
180 266 295 287 296 276 299 302 326 333 335 357 358 10 23 24 11 19 16 25 26 31
209 235 248 294 290 302 311 335 346 344 337 348 352 6 24 30 20 16 17 27 31 38